Location: Newark
(43.4306°N, 0.3089°E)
Time: 18:02:53
(UTC+00:00)

S-56A Canister/Altair - Pass Details

Date: 19 August 2019
Orbit: 633 x 2499 km, 38.9° (Epoch: 21 September)

Event Time Altitude Azimuth Distance (km) Brightness Sun altitude
Rises 23:44:45 0° 258° (WSW) 2,915 - -33.8°
Reaches altitude 10° 23:46:59 10° 253° (WSW) 2,023 - -33.9°
Maximum altitude 23:51:19 51° 177° (S) 875 - -33.9°
Drops below altitude 10° 23:56:39 10° 102° (ESE) 2,477 - -33.9°
Sets 23:59:39 0° 98° (E) 3,651 - -34.0°
